Evergreen, AL

6:43 AM CST on November 18, 2017 (GMT -0600)
Middleton

Weather History for KGZH - August, 2012

Change the Weather History Date:

Tuesday, August 14, 2012

  Actual Average (KPRN) Record (KPRN)
Temperature  
Mean Temperature 82 °F -  
Max Temperature 91 °F 90 °F 105 °F (1954)
Min Temperature 72 °F 68 °F 60 °F (1967)
Cooling Degree Days 17    
Growing Degree Days 32 (Base 50)    
Moisture  
Dew Point 74 °F    
Average Humidity 82    
Maximum Humidity 94    
Minimum Humidity 59    
Precipitation  
Precipitation 0.12 in - - ()
Sea Level Pressure  
Sea Level Pressure 29.97 in    
Wind  
Wind Speed 4 mph (SW)    
Max Wind Speed 12 mph    
Max Gust Speed 24 mph    
Visibility 9 miles    
Events Rain , Thunderstorm    
Averages and records for this station are not official NWS values.
T = Trace of Precipitation, MM = Missing Value Source: NWS Daily Summary

Daily Weather History Graph

Daily Weather History Graph

Search for Another Location

Airport or City:

Trip Planner

Search our weather history database for the weather conditions in past years. The results will help you decide how hot, cold, wet, or windy it might be!

Date:

Astronomy

Aug. 14, 2012 Rise Set
Actual Time 6:13 AM CDT 7:31 PM CDT
Civil Twilight 5:47 AM CDT 7:57 PM CDT
Nautical Twilight 5:17 AM CDT 8:27 PM CDT
Astronomical Twilight 4:45 AM CDT 8:59 PM CDT
Moon 3:16 AM CDT (8/14) 5:21 PM CDT (8/14)
Length of Visible Light 14h 09m
Length of Day
13h 18m
Waning Crescent, 9% of the Moon is Illuminated
Aug 14
Waning Crescent
Aug 17
New
Aug 24
First Quarter
Aug 31
Full
Sep 8
Last Quarter

Hourly Weather History & Observations

Time (CDT) Temp. Heat Index Dew Point Humidity Pressure Visibility Wind Dir Wind Speed Gust Speed Precip Events Conditions
12:53 AM 73.9 °F - 72.0 °F 93% 29.98 in 7.0 mi South 3.5 mph - N/A   Clear
1:53 AM 75.0 °F - 72.0 °F 90% 29.99 in 7.0 mi Calm Calm - N/A   Clear
2:53 AM 75.0 °F - 73.0 °F 94% 29.97 in 7.0 mi SW 3.5 mph - N/A   Clear
3:53 AM 75.9 °F - 73.9 °F 94% 29.95 in 9.0 mi SSW 4.6 mph - N/A   Clear
5:24 AM 78.8 °F - 75.2 °F 89% 29.97 in 10.0 mi SSW 4.6 mph - N/A   Partly Cloudy
5:53 AM 77.0 °F - 75.0 °F 94% 29.96 in 9.0 mi South 3.5 mph - N/A   Scattered Clouds
6:53 AM 78.1 °F - 75.0 °F 90% 30.00 in 7.0 mi Calm Calm - 0.01 in   Mostly Cloudy
7:53 AM 81.0 °F 87.9 °F 77.0 °F 88% 30.01 in 10.0 mi Calm Calm - N/A   Partly Cloudy
8:50 AM 82.4 °F 90.9 °F 77.0 °F 84% 30.02 in 10.0 mi West 8.1 mph - N/A   Mostly Cloudy
8:53 AM 82.0 °F 89.4 °F 75.9 °F 82% 30.01 in 10.0 mi West 9.2 mph - N/A   Mostly Cloudy
9:23 AM 84.2 °F 94.1 °F 77.0 °F 79% 30.01 in 10.0 mi West 5.8 mph - N/A   Overcast
9:53 AM 84.9 °F 95.3 °F 77.0 °F 77% 30.00 in 10.0 mi Variable 6.9 mph - N/A   Mostly Cloudy
10:12 AM 86.0 °F 95.1 °F 75.2 °F 70% 30.00 in 10.0 mi Variable 6.9 mph 17.3 mph N/A   Scattered Clouds
10:53 AM 87.1 °F 96.3 °F 75.0 °F 67% 30.00 in 10.0 mi WSW 9.2 mph - N/A   Partly Cloudy
11:53 AM 88.0 °F 98.5 °F 75.9 °F 67% 29.99 in 10.0 mi SW 9.2 mph - N/A   Mostly Cloudy
12:53 PM 91.0 °F 101.6 °F 75.0 °F 59% 29.96 in 10.0 mi SW 11.5 mph - N/A   Scattered Clouds
1:53 PM 88.0 °F 97.5 °F 75.0 °F 65% 29.95 in 10.0 mi WSW 9.2 mph 18.4 mph N/A Thunderstorm Mostly Cloudy
2:13 PM 86.0 °F 93.4 °F 73.4 °F 66% 29.95 in 10.0 mi SSW 6.9 mph - 0.00 in   Scattered Clouds
2:53 PM 91.0 °F 104.2 °F 77.0 °F 63% 29.91 in 10.0 mi West 6.9 mph - 0.00 in   Partly Cloudy
3:34 PM 87.8 °F 97.6 °F 75.2 °F 66% 29.93 in 10.0 mi West 6.9 mph - N/A Thunderstorm Thunderstorm
3:53 PM 80.1 °F 83.6 °F 71.1 °F 74% 29.94 in 10.0 mi Variable 5.8 mph 24.2 mph N/A Thunderstorm Scattered Clouds
4:27 PM 75.2 °F - 71.6 °F 89% 29.93 in 1.8 mi NNW 8.1 mph - 0.10 in Rain , Thunderstorm Thunderstorms and Rain
4:36 PM 75.2 °F - 71.6 °F 89% 29.91 in 4.0 mi NW 3.5 mph - 0.11 in Rain , Thunderstorm Light Thunderstorms and Rain
4:53 PM 75.9 °F - 72.0 °F 87% 29.92 in 10.0 mi ENE 8.1 mph - 0.11 in Rain , Thunderstorm Light Rain
5:02 PM 75.2 °F - 71.6 °F 89% 29.93 in 10.0 mi Calm Calm - N/A   Clear
5:34 PM 75.2 °F - 71.6 °F 89% 29.95 in 10.0 mi SSW 5.8 mph - N/A   Scattered Clouds
5:53 PM 75.9 °F - 72.0 °F 87% 29.98 in 10.0 mi SSW 11.5 mph 18.4 mph N/A   Mostly Cloudy
6:53 PM 77.0 °F - 71.1 °F 82% 29.94 in 10.0 mi Calm Calm - N/A   Partly Cloudy
7:53 PM 75.9 °F - 72.0 °F 87% 29.96 in 10.0 mi Calm Calm - N/A   Clear
8:53 PM 73.9 °F - 72.0 °F 93% 29.96 in 10.0 mi South 5.8 mph - N/A   Clear
9:53 PM 73.0 °F - 71.1 °F 93% 29.96 in 10.0 mi Calm Calm - N/A   Clear
10:53 PM 73.0 °F - 70.0 °F 90% 29.96 in 10.0 mi Calm Calm - N/A   Clear
11:53 PM 72.0 °F - 70.0 °F 93% 29.96 in 5.0 mi Calm Calm - N/A   Clear